• In Hungary
  • List of Countries
  • For 7 days
  • Water Temperature
  • Satellite Maps
  • Weather Map
  • News
  • Weather Widgets
  • user-avatar
    Login

    Hourly Weather Mikomeseng

    Today, 24 May, Thursday

    Time Temperature Precipitation Wind Pressure Humidity
    00:00 +21°C° 0.3 mm 0 mps 714 mmHg 99%
    01:00 +21°C° 0 mm 0 mps 714 mmHg 99%
    02:00 +21°C° 0.1 mm 0 mps 713 mmHg 99%
    03:00 +21°C° 0.1 mm 0 mps 713 mmHg 99%
    04:00 +21°C° 0.1 mm 0 mps 713 mmHg 99%
    05:00 +21°C° 0.9 mm 0 mps 713 mmHg 99%
    06:00 +21°C° 0.9 mm 0 mps 714 mmHg 98%
    07:00 +21°C° 0.9 mm 0 mps 714 mmHg 98%
    08:00 +23°C° 0.4 mm 0 mps 714 mmHg 93%
    09:00 +24°C° 0.4 mm 0 mps 714 mmHg 88%
    10:00 +25°C° 0.4 mm 0 mps 715 mmHg 83%
    11:00 +25°C° 2 mm 0 mps 714 mmHg 84%
    12:00 +28°C° 2 mm 1 mps 714 mmHg 85%
    13:00 +28°C° 2 mm 1 mps 714 mmHg 86%
    14:00 +27°C° 0.4 mm 1 mps 713 mmHg 85%
    15:00 +27°C° 0.4 mm 1 mps 712 mmHg 84%
    16:00 +27°C° 0.4 mm 1 mps 712 mmHg 84%
    17:00 +26°C° 0 mm 1 mps 712 mmHg 88%
    18:00 +25°C° 0 mm 1 mps 712 mmHg 91%
    19:00 +24°C° 0 mm 1 mps 712 mmHg 95%
    20:00 +24°C° 0 mm 1 mps 712 mmHg 96%
    21:00 +21°C° 0 mm 0 mps 713 mmHg 97%
    22:00 +21°C° 0 mm 0 mps 713 mmHg 97%
    23:00 +21°C° 0 mm 0 mps 713 mmHg 98%

    Tomorrow, 25 May, Friday

    Time Temperature Precipitation Wind Pressure Humidity
    00:00 +21°C° 0 mm 0 mps 713 mmHg 98%
    01:00 +20°C° 0 mm 0 mps 712 mmHg 98%
    02:00 +20°C° 0 mm 0 mps 712 mmHg 98%
    03:00 +20°C° 0 mm 0 mps 712 mmHg 98%
    04:00 +20°C° 0 mm 0 mps 711 mmHg 99%
    05:00 +21°C° 0 mm 0 mps 712 mmHg 98%
    06:00 +21°C° 0 mm 0 mps 712 mmHg 97%
    07:00 +21°C° 0 mm 0 mps 713 mmHg 96%
    08:00 +23°C° 0 mm 0 mps 713 mmHg 86%
    09:00 +25°C° 0 mm 0 mps 714 mmHg 77%
    10:00 +29°C° 0 mm 1 mps 714 mmHg 68%
    11:00 +30°C° 0 mm 1 mps 714 mmHg 63%
    12:00 +31°C° 0 mm 1 mps 713 mmHg 59%
    13:00 +32°C° 0 mm 2 mps 713 mmHg 55%
    14:00 +30°C° 1.1 mm 2 mps 712 mmHg 65%
    15:00 +29°C° 1.1 mm 2 mps 711 mmHg 75%
    16:00 +28°C° 1.1 mm 2 mps 710 mmHg 86%
    17:00 +27°C° 0.9 mm 2 mps 711 mmHg 89%
    18:00 +25°C° 0.9 mm 1 mps 711 mmHg 92%
    19:00 +24°C° 0.9 mm 1 mps 712 mmHg 96%
    20:00 +24°C° 1.3 mm 1 mps 712 mmHg 97%
    21:00 +24°C° 1.3 mm 1 mps 713 mmHg 97%
    22:00 +24°C° 1.3 mm 1 mps 713 mmHg 98%
    23:00 +23°C° 0.8 mm 1 mps 713 mmHg 98%

    Day after tomorrow, 26 May, Saturday

    Time Temperature Precipitation Wind Pressure Humidity
    00:00 +23°C° 0.8 mm 1 mps 713 mmHg 98%
    01:00 +23°C° 0.8 mm 1 mps 713 mmHg 98%
    02:00 +23°C° 0.3 mm 1 mps 712 mmHg 98%
    03:00 +21°C° 0.3 mm 0 mps 712 mmHg 98%
    04:00 +20°C° 0.3 mm 0 mps 711 mmHg 98%
    05:00 +21°C° 0 mm 0 mps 711 mmHg 97%
    06:00 +21°C° 0 mm 0 mps 712 mmHg 97%
    07:00 +21°C° 0 mm 0 mps 712 mmHg 96%
    08:00 +22°C° 0.2 mm 0 mps 713 mmHg 90%
    09:00 +24°C° 0.2 mm 0 mps 713 mmHg 83%
    10:00 +26°C° 0.2 mm 0 mps 714 mmHg 76%
    11:00 +28°C° 0.3 mm 1 mps 714 mmHg 73%
    12:00 +29°C° 0.3 mm 1 mps 713 mmHg 69%
    13:00 +30°C° 0.3 mm 1 mps 713 mmHg 65%
    14:00 +29°C° 1.4 mm 1 mps 712 mmHg 71%
    15:00 +29°C° 1.4 mm 2 mps 712 mmHg 77%
    16:00 +28°C° 1.4 mm 2 mps 711 mmHg 83%
    17:00 +27°C° 1.1 mm 1 mps 711 mmHg 87%
    18:00 +25°C° 1.1 mm 1 mps 712 mmHg 90%
    19:00 +24°C° 1.1 mm 1 mps 712 mmHg 94%
    20:00 +24°C° 0.7 mm 1 mps 713 mmHg 95%
    21:00 +24°C° 0.7 mm 1 mps 713 mmHg 96%
    22:00 +21°C° 0.7 mm 0 mps 714 mmHg 97%
    23:00 +21°C° 0.2 mm 0 mps 714 mmHg 97%

    27 May, Sunday

    Time Temperature Precipitation Wind Pressure Humidity
    00:00 +21°C° 0.2 mm 0 mps 713 mmHg 97%
    01:00 +21°C° 0.2 mm 0 mps 713 mmHg 98%
    02:00 +21°C° 0.2 mm 0 mps 713 mmHg 98%
    03:00 +20°C° 0.2 mm 0 mps 712 mmHg 98%
    04:00 +20°C° 0.2 mm 0 mps 712 mmHg 98%
    05:00 +20°C° 0 mm 0 mps 712 mmHg 97%
    06:00 +21°C° 0 mm 0 mps 713 mmHg 97%
    07:00 +21°C° 0 mm 0 mps 713 mmHg 96%
    08:00 +23°C° 0 mm 0 mps 714 mmHg 85%
    09:00 +26°C° 0 mm 0 mps 715 mmHg 74%
    10:00 +28°C° 0 mm 0 mps 715 mmHg 64%
    11:00 +29°C° 1 mm 1 mps 715 mmHg 70%
    12:00 +29°C° 1 mm 1 mps 714 mmHg 76%
    13:00 +29°C° 1 mm 1 mps 713 mmHg 82%
    14:00 +28°C° 1.3 mm 1 mps 713 mmHg 84%
    15:00 +28°C° 1.3 mm 1 mps 712 mmHg 87%
    16:00 +27°C° 1.3 mm 1 mps 712 mmHg 89%
    17:00 +26°C° 1.3 mm 1 mps 712 mmHg 91%
    18:00 +25°C° 1.3 mm 1 mps 713 mmHg 94%
    19:00 +24°C° 1.3 mm 1 mps 713 mmHg 97%
    20:00 +24°C° 1.4 mm 1 mps 714 mmHg 97%
    21:00 +23°C° 1.4 mm 1 mps 714 mmHg 97%
    22:00 +23°C° 1.4 mm 1 mps 715 mmHg 98%
    23:00 +23°C° 0.4 mm 1 mps 714 mmHg 98%

    28 May, Monday

    Time Temperature Precipitation Wind Pressure Humidity
    00:00 +23°C° 0.4 mm 1 mps 714 mmHg 98%
    01:00 +23°C° 0.4 mm 1 mps 713 mmHg 98%
    02:00 +23°C° 0 mm 1 mps 713 mmHg 98%
    03:00 +20°C° 0 mm 0 mps 713 mmHg 98%
    04:00 +20°C° 0 mm 0 mps 713 mmHg 99%
    05:00 +21°C° 0 mm 0 mps 713 mmHg 98%
    06:00 +21°C° 0 mm 0 mps 714 mmHg 98%
    07:00 +21°C° 0 mm 0 mps 714 mmHg 97%
    08:00 +23°C° 0 mm 0 mps 715 mmHg 90%
    09:00 +26°C° 0 mm 1 mps 715 mmHg 82%
    10:00 +28°C° 0 mm 1 mps 716 mmHg 75%
    11:00 +29°C° 0.2 mm 1 mps 715 mmHg 73%
    12:00 +29°C° 0.2 mm 1 mps 714 mmHg 70%
    13:00 +30°C° 0.2 mm 1 mps 714 mmHg 68%
    14:00 +29°C° 1.5 mm 1 mps 713 mmHg 75%
    15:00 +28°C° 1.5 mm 1 mps 713 mmHg 82%
    16:00 +27°C° 1.5 mm 1 mps 712 mmHg 88%
    17:00 +26°C° 0.4 mm 1 mps 713 mmHg 91%
    18:00 +25°C° 0.4 mm 1 mps 713 mmHg 94%
    19:00 +24°C° 0.4 mm 1 mps 713 mmHg 97%
    20:00 +22°C° 0.1 mm 0 mps 714 mmHg 98%
    21:00 +22°C° 0.1 mm 0 mps 714 mmHg 98%
    22:00 +21°C° 0.1 mm 0 mps 714 mmHg 98%
    23:00 +21°C° 0.1 mm 0 mps 714 mmHg 98%

    29 May, Tuesday

    Time Temperature Precipitation Wind Pressure Humidity
    00:00 +21°C° 0.1 mm 0 mps 714 mmHg 99%
    01:00 +23°C° 0.1 mm 1 mps 713 mmHg 99%
    02:00 +21°C° 0.1 mm 0 mps 713 mmHg 99%
    03:00 +21°C° 0.1 mm 0 mps 713 mmHg 99%
    04:00 +20°C° 0.1 mm 0 mps 713 mmHg 99%
    05:00 +21°C° 0.4 mm 0 mps 713 mmHg 98%
    06:00 +21°C° 0.4 mm 0 mps 714 mmHg 98%
    07:00 +21°C° 0.4 mm 0 mps 714 mmHg 98%
    08:00 +23°C° 0 mm 0 mps 715 mmHg 88%
    09:00 +25°C° 0 mm 0 mps 715 mmHg 79%
    10:00 +27°C° 0 mm 0 mps 716 mmHg 69%
    11:00 +30°C° 0.2 mm 1 mps 715 mmHg 66%
    12:00 +30°C° 0.2 mm 1 mps 715 mmHg 63%
    13:00 +31°C° 0.2 mm 1 mps 714 mmHg 60%
    14:00 +30°C° 1 mm 1 mps 713 mmHg 67%
    15:00 +29°C° 1 mm 1 mps 713 mmHg 74%
    16:00 +28°C° 1 mm 1 mps 712 mmHg 80%
    17:00 +27°C° 0.3 mm 1 mps 712 mmHg 85%
    18:00 +26°C° 0.3 mm 1 mps 712 mmHg 89%
    19:00 +25°C° 0.3 mm 1 mps 713 mmHg 93%
    20:00 +24°C° 0.6 mm 1 mps 713 mmHg 95%
    21:00 +24°C° 0.6 mm 1 mps 714 mmHg 96%
    22:00 +21°C° 0.6 mm 0 mps 714 mmHg 98%
    23:00 +21°C° 0.4 mm 0 mps 714 mmHg 98%
    Show more